Time,TemperatureF,DewpointF,PressureIn,WindDirection,WindDirectionDegrees,WindSpeedMPH,WindSpeedGustMPH,Humidity,HourlyPrecipIn,Conditions,Clouds,dailyrainin,SoftwareType,DateUTC
2013-03-30 00:00:00,42.0,30.3,32.52,NNW,337,3.0,12.0,63,0.00,,OVC080,0.00,VWS V14.00,2013-03-30 04:00:00,
2013-03-30 00:10:00,41.0,29.4,32.52,NW,315,5.0,9.0,63,0.00,,OVC080,0.00,VWS V14.00,2013-03-30 04:10:00,
2013-03-30 00:20:00,41.0,29.8,32.52,WNW,292,4.0,9.0,64,0.00,,OVC080,0.00,VWS V14.00,2013-03-30 04:20:00,
2013-03-30 00:30:00,41.0,29.8,32.53,NNW,337,4.0,7.0,64,0.00,,OVC080,0.00,VWS V14.00,2013-03-30 04:30:00,
2013-03-30 00:40:00,41.0,30.1,32.54,NW,315,4.0,8.0,65,0.00,,OVC080,0.00,VWS V14.00,2013-03-30 04:40:00,
2013-03-30 00:50:00,41.0,30.1,32.54,NW,315,8.0,9.0,65,0.00,,OVC080,0.00,VWS V14.00,2013-03-30 04:50:00,
2013-03-30 01:00:00,41.0,30.5,32.53,NNW,337,6.0,11.0,66,0.00,,OVC080,0.00,VWS V14.00,2013-03-30 05:00:00,
2013-03-30 01:10:00,41.0,30.5,32.53,NW,315,3.0,10.0,66,0.00,,OVC080,0.00,VWS V14.00,2013-03-30 05:10:00,
2013-03-30 01:20:00,41.0,30.5,32.53,West,270,5.0,10.0,66,0.00,,OVC080,0.00,VWS V14.00,2013-03-30 05:20:00,
2013-03-30 01:30:00,41.0,30.9,32.54,WNW,292,8.0,11.0,67,0.00,,OVC080,0.00,VWS V14.00,2013-03-30 05:30:00,
2013-03-30 01:40:00,40.0,29.9,32.53,NW,315,8.0,10.0,67,0.00,,OVC080,0.00,VWS V14.00,2013-03-30 05:40:00,
2013-03-30 01:50:00,40.0,30.3,32.53,WNW,292,4.0,9.0,68,0.00,,OVC080,0.00,VWS V14.00,2013-03-30 05:50:00,
2013-03-30 02:00:00,40.0,30.3,32.53,NW,315,4.0,10.0,68,0.00,,OVC080,0.00,VWS V14.00,2013-03-30 06:00:00,
2013-03-30 02:10:00,40.0,30.7,32.53,NW,315,7.0,10.0,69,0.00,,OVC085,0.00,VWS V14.00,2013-03-30 06:10:00,
2013-03-30 02:20:00,40.0,31.0,32.53,NW,315,6.0,9.0,70,0.00,,OVC085,0.00,VWS V14.00,2013-03-30 06:20:00,
2013-03-30 02:30:00,40.0,31.0,32.54,North,360,5.0,10.0,70,0.00,,OVC085,0.00,VWS V14.00,2013-03-30 06:30:00,
2013-03-30 02:40:00,40.0,31.0,32.53,West,270,5.0,10.0,70,0.00,,OVC085,0.00,VWS V14.00,2013-03-30 06:40:00,
2013-03-30 02:50:00,40.0,31.0,32.53,NW,315,5.0,9.0,70,0.00,,OVC085,0.00,VWS V14.00,2013-03-30 06:50:00,
2013-03-30 03:00:00,40.0,31.4,32.54,WNW,292,5.0,9.0,71,0.00,,OVC085,0.00,VWS V14.00,2013-03-30 07:00:00,
2013-03-30 03:10:00,40.0,31.4,32.54,NW,315,5.0,10.0,71,0.00,,OVC080,0.00,VWS V14.00,2013-03-30 07:10:00,
2013-03-30 03:20:00,39.0,30.4,32.54,NW,315,7.0,9.0,71,0.00,,OVC080,0.00,VWS V14.00,2013-03-30 07:20:00,
2013-03-30 03:30:00,39.0,30.4,32.54,NW,315,4.0,10.0,71,0.00,,OVC080,0.00,VWS V14.00,2013-03-30 07:30:00,
2013-03-30 03:40:00,39.0,30.8,32.54,NW,315,7.0,11.0,72,0.00,,OVC080,0.00,VWS V14.00,2013-03-30 07:40:00,
2013-03-30 03:50:00,39.0,30.8,32.54,WNW,292,6.0,10.0,72,0.00,,OVC080,0.00,VWS V14.00,2013-03-30 07:50:00,
2013-03-30 04:00:00,39.0,30.8,32.54,NW,315,4.0,9.0,72,0.00,,OVC080,0.00,VWS V14.00,2013-03-30 08:00:00,
2013-03-30 04:10:00,39.0,31.1,32.54,West,270,4.0,8.0,73,0.00,,OVC080,0.00,VWS V14.00,2013-03-30 08:10:00,
2013-03-30 04:20:00,39.0,31.1,32.54,WNW,292,8.0,10.0,73,0.00,,OVC080,0.00,VWS V14.00,2013-03-30 08:20:00,
2013-03-30 04:30:00,38.0,30.5,32.54,NW,315,4.0,10.0,74,0.00,,OVC080,0.00,VWS V14.00,2013-03-30 08:30:00,
2013-03-30 04:40:00,38.0,30.8,32.55,NW,315,6.0,10.0,75,0.00,,OVC080,0.00,VWS V14.00,2013-03-30 08:40:00,
2013-03-30 04:50:00,37.0,30.5,32.54,NNW,337,2.0,9.0,77,0.00,,OVC080,0.00,VWS V14.00,2013-03-30 08:50:00,
2013-03-30 05:00:00,37.0,31.1,32.55,North,360,6.0,8.0,79,0.00,,OVC080,0.00,VWS V14.00,2013-03-30 09:00:00,
2013-03-30 05:10:00,37.0,31.1,32.54,WNW,292,3.0,12.0,79,0.00,,OVC080,0.00,VWS V14.00,2013-03-30 09:10:00,
2013-03-30 05:20:00,36.0,30.8,32.54,NW,315,5.0,8.0,81,0.00,,OVC080,0.00,VWS V14.00,2013-03-30 09:20:00,
2013-03-30 05:30:00,36.0,31.0,32.54,NW,315,5.0,9.0,82,0.00,,OVC080,0.00,VWS V14.00,2013-03-30 09:30:00,
2013-03-30 05:40:00,36.0,31.4,32.54,NW,315,5.0,9.0,83,0.00,,OVC080,0.00,VWS V14.00,2013-03-30 09:40:00,
2013-03-30 05:50:00,35.0,30.7,32.54,NW,315,5.0,10.0,84,0.00,,OVC080,0.00,VWS V14.00,2013-03-30 09:50:00,
2013-03-30 06:00:00,35.0,30.7,32.54,WNW,292,4.0,10.0,84,0.00,,OVC080,0.00,VWS V14.00,2013-03-30 10:00:00,
2013-03-30 06:10:00,35.0,31.2,32.54,NW,315,5.0,8.0,86,0.00,,CLR,0.00,VWS V14.00,2013-03-30 10:10:00,
2013-03-30 06:20:00,35.0,31.2,32.54,NNW,337,3.0,8.0,86,0.00,,CLR,0.00,VWS V14.00,2013-03-30 10:20:00,
2013-03-30 06:30:00,34.0,30.5,32.54,NW,315,5.0,9.0,87,0.00,,CLR,0.00,VWS V14.00,2013-03-30 10:30:00,
2013-03-30 06:40:00,34.0,30.8,32.55,NW,315,5.0,8.0,88,0.00,,CLR,0.00,VWS V14.00,2013-03-30 10:40:00,
2013-03-30 06:50:00,34.0,30.5,32.56,NW,315,6.0,8.0,87,0.00,,CLR,0.00,VWS V14.00,2013-03-30 10:50:00,
2013-03-30 07:00:00,34.0,30.8,32.56,NW,315,5.0,7.0,88,0.00,,CLR,0.00,VWS V14.00,2013-03-30 11:00:00,
2013-03-30 07:10:00,35.0,31.2,32.57,NW,315,4.0,8.0,86,0.00,,CLR,0.00,VWS V14.00,2013-03-30 11:10:00,
2013-03-30 07:20:00,36.0,31.6,32.59,NW,315,5.0,7.0,84,0.00,,CLR,0.00,VWS V14.00,2013-03-30 11:20:00,
2013-03-30 07:30:00,37.0,32.0,32.60,NW,315,7.0,9.0,82,0.00,,CLR,0.00,VWS V14.00,2013-03-30 11:30:00,
2013-03-30 07:40:00,37.0,31.4,32.62,NNW,337,3.0,10.0,80,0.00,,CLR,0.00,VWS V14.00,2013-03-30 11:40:00,
2013-03-30 07:50:00,38.0,31.8,32.63,NNW,337,5.0,8.0,78,0.00,,CLR,0.00,VWS V14.00,2013-03-30 11:50:00,
2013-03-30 08:00:00,39.0,31.8,32.64,NW,315,4.0,8.0,75,0.00,,CLR,0.00,VWS V14.00,2013-03-30 12:00:00,
2013-03-30 08:10:00,39.0,31.1,32.64,WNW,292,5.0,10.0,73,0.00,,CLR,0.00,VWS V14.00,2013-03-30 12:10:00,
2013-03-30 08:20:00,40.0,31.0,32.64,NW,315,6.0,10.0,70,0.00,,CLR,0.00,VWS V14.00,2013-03-30 12:20:00,
2013-03-30 08:30:00,41.0,32.0,32.65,NW,315,6.0,10.0,70,0.00,,CLR,0.00,VWS V14.00,2013-03-30 12:30:00,
2013-03-30 08:40:00,42.0,32.2,32.66,NW,315,5.0,7.0,68,0.00,,CLR,0.00,VWS V14.00,2013-03-30 12:40:00,
2013-03-30 08:50:00,42.0,31.5,32.66,NW,315,5.0,10.0,66,0.00,,CLR,0.00,VWS V14.00,2013-03-30 12:50:00,
2013-03-30 09:00:00,43.0,31.7,32.67,NW,315,6.0,10.0,64,0.00,,CLR,0.00,VWS V14.00,2013-03-30 13:00:00,
2013-03-30 09:10:00,43.0,30.9,32.66,NW,315,6.0,11.0,62,0.00,,CLR,0.00,VWS V14.00,2013-03-30 13:10:00,
2013-03-30 09:20:00,44.0,31.8,32.67,North,360,2.0,11.0,62,0.00,,CLR,0.00,VWS V14.00,2013-03-30 13:20:00,
2013-03-30 09:30:00,44.0,30.2,32.67,NNW,337,6.0,10.0,58,0.00,,CLR,0.00,VWS V14.00,2013-03-30 13:30:00,
2013-03-30 09:40:00,45.0,30.7,32.67,NNW,337,6.0,10.0,57,0.00,,CLR,0.00,VWS V14.00,2013-03-30 13:40:00,
2013-03-30 09:50:00,46.0,31.2,32.67,NW,315,3.0,8.0,56,0.00,,CLR,0.00,VWS V14.00,2013-03-30 13:50:00,
2013-03-30 10:00:00,46.0,29.8,32.67,ENE,67,5.0,12.0,53,0.00,,CLR,0.00,VWS V14.00,2013-03-30 14:00:00,
2013-03-30 10:10:00,47.0,30.3,32.67,NW,315,6.0,10.0,52,0.00,,CLR,0.00,VWS V14.00,2013-03-30 14:10:00,
2013-03-30 10:20:00,48.0,30.3,32.66,NW,315,4.0,12.0,50,0.00,,CLR,0.00,VWS V14.00,2013-03-30 14:20:00,
2013-03-30 10:30:00,48.0,28.8,32.66,North,360,6.0,12.0,47,0.00,,CLR,0.00,VWS V14.00,2013-03-30 14:30:00,
2013-03-30 10:40:00,48.0,28.8,32.66,NW,315,6.0,15.0,47,0.00,,CLR,0.00,VWS V14.00,2013-03-30 14:40:00,
2013-03-30 10:50:00,48.0,28.8,32.65,NW,315,9.0,13.0,47,0.00,,CLR,0.00,VWS V14.00,2013-03-30 14:50:00,
2013-03-30 11:00:00,48.0,28.8,32.65,WNW,292,9.0,16.0,47,0.00,,CLR,0.00,VWS V14.00,2013-03-30 15:00:00,
2013-03-30 11:10:00,49.0,29.7,32.65,WNW,292,7.0,14.0,47,0.00,,CLR,0.00,VWS V14.00,2013-03-30 15:10:00,
2013-03-30 11:20:00,49.0,29.1,32.64,NW,315,3.0,14.0,46,0.00,,CLR,0.00,VWS V14.00,2013-03-30 15:20:00,
2013-03-30 11:30:00,49.0,29.1,32.64,NW,315,9.0,15.0,46,0.00,,CLR,0.00,VWS V14.00,2013-03-30 15:30:00,
2013-03-30 11:40:00,49.0,29.1,32.63,ENE,67,6.0,18.0,46,0.00,,CLR,0.00,VWS V14.00,2013-03-30 15:40:00,
2013-03-30 11:50:00,50.0,29.5,32.62,NW,315,3.0,15.0,45,0.00,,CLR,0.00,VWS V14.00,2013-03-30 15:50:00,
2013-03-30 12:00:00,50.0,29.5,32.63,ENE,67,6.0,13.0,45,0.00,,CLR,0.00,VWS V14.00,2013-03-30 16:00:00,
2013-03-30 12:10:00,50.0,30.0,32.62,NW,315,3.0,14.0,46,0.00,,FEW070,0.00,VWS V14.00,2013-03-30 16:10:00,
2013-03-30 12:20:00,51.0,30.4,32.62,WNW,292,11.0,14.0,45,0.00,,FEW070,0.00,VWS V14.00,2013-03-30 16:20:00,
2013-03-30 12:30:00,51.0,30.4,32.61,West,270,9.0,14.0,45,0.00,,FEW070,0.00,VWS V14.00,2013-03-30 16:30:00,
2013-03-30 12:40:00,51.0,30.4,32.60,North,360,0.0,15.0,45,0.00,,FEW070,0.00,VWS V14.00,2013-03-30 16:40:00,
2013-03-30 12:50:00,51.0,30.4,32.60,NW,315,6.0,15.0,45,0.00,,FEW070,0.00,VWS V14.00,2013-03-30 16:50:00,
2013-03-30 13:00:00,48.0,32.6,32.61,SW,225,7.0,13.0,55,0.00,,FEW070,0.00,VWS V14.00,2013-03-30 17:00:00,
2013-03-30 13:10:00,47.0,31.7,32.62,North,360,11.0,12.0,55,0.00,,CLR,0.00,VWS V14.00,2013-03-30 17:10:00,
2013-03-30 13:20:00,44.0,33.4,32.61,West,270,13.0,21.0,66,0.00,,CLR,0.00,VWS V14.00,2013-03-30 17:20:00,
2013-03-30 13:30:00,43.0,32.8,32.60,WSW,247,13.0,24.0,67,0.00,,CLR,0.00,VWS V14.00,2013-03-30 17:30:00,
2013-03-30 13:40:00,44.0,32.2,32.58,WSW,247,13.0,19.0,63,0.00,,CLR,0.00,VWS V14.00,2013-03-30 17:40:00,
2013-03-30 13:50:00,44.0,33.8,32.58,WSW,247,14.0,20.0,67,0.00,,CLR,0.00,VWS V14.00,2013-03-30 17:50:00,
2013-03-30 14:00:00,42.0,35.7,32.58,WSW,247,11.0,19.0,78,0.00,,CLR,0.00,VWS V14.00,2013-03-30 18:00:00,
2013-03-30 14:10:00,42.0,34.7,32.58,WSW,247,13.0,19.0,75,0.00,,FEW070,0.00,VWS V14.00,2013-03-30 18:10:00,
2013-03-30 14:20:00,42.0,33.3,32.57,West,270,15.0,19.0,71,0.00,,FEW070,0.00,VWS V14.00,2013-03-30 18:20:00,
2013-03-30 14:30:00,43.0,34.2,32.57,WSW,247,12.0,19.0,71,0.00,,FEW070,0.00,VWS V14.00,2013-03-30 18:30:00,
2013-03-30 14:40:00,42.0,35.7,32.56,WSW,247,10.0,20.0,78,0.00,,FEW070,0.00,VWS V14.00,2013-03-30 18:40:00,
2013-03-30 14:50:00,42.0,34.0,32.58,WSW,247,12.0,20.0,73,0.00,,FEW070,0.00,VWS V14.00,2013-03-30 18:50:00,
2013-03-30 15:00:00,42.0,35.0,32.56,WSW,247,11.0,19.0,76,0.00,,FEW070,0.00,VWS V14.00,2013-03-30 19:00:00,
2013-03-30 15:10:00,43.0,32.8,32.56,WSW,247,15.0,18.0,67,0.00,,SCT085,0.00,VWS V14.00,2013-03-30 19:10:00,
2013-03-30 15:20:00,43.0,34.6,32.56,West,270,16.0,22.0,72,0.00,,SCT085,0.00,VWS V14.00,2013-03-30 19:20:00,
2013-03-30 15:30:00,43.0,33.5,32.56,West,270,10.0,19.0,69,0.00,,SCT085,0.00,VWS V14.00,2013-03-30 19:30:00,
2013-03-30 15:40:00,43.0,34.6,32.56,WSW,247,13.0,18.0,72,0.00,,SCT085,0.00,VWS V14.00,2013-03-30 19:40:00,
2013-03-30 15:50:00,43.0,35.3,32.56,WSW,247,10.0,19.0,74,0.00,,SCT085,0.00,VWS V14.00,2013-03-30 19:50:00,
2013-03-30 16:00:00,44.0,33.4,32.56,West,270,15.0,19.0,66,0.00,,SCT085,0.00,VWS V14.00,2013-03-30 20:00:00,
2013-03-30 16:10:00,45.0,32.8,32.56,WSW,247,14.0,18.0,62,0.00,,FEW090,0.00,VWS V14.00,2013-03-30 20:10:00,
2013-03-30 16:20:00,46.0,32.1,32.56,West,270,12.0,20.0,58,0.00,,FEW090,0.00,VWS V14.00,2013-03-30 20:20:00,
2013-03-30 16:30:00,46.0,32.1,32.56,WSW,247,8.0,21.0,58,0.00,,FEW090,0.00,VWS V14.00,2013-03-30 20:30:00,
2013-03-30 16:40:00,45.0,33.2,32.56,WSW,247,12.0,19.0,63,0.00,,FEW090,0.00,VWS V14.00,2013-03-30 20:40:00,
2013-03-30 16:50:00,47.0,30.8,32.57,West,270,12.0,16.0,53,0.00,,FEW090,0.00,VWS V14.00,2013-03-30 20:50:00,
2013-03-30 17:00:00,47.0,29.3,32.56,West,270,9.0,17.0,50,0.00,,FEW090,0.00,VWS V14.00,2013-03-30 21:00:00,
2013-03-30 17:10:00,47.0,28.9,32.57,WSW,247,13.0,16.0,49,0.00,,CLR,0.00,VWS V14.00,2013-03-30 21:10:00,
2013-03-30 17:20:00,48.0,28.8,32.57,WSW,247,9.0,22.0,47,0.00,,CLR,0.00,VWS V14.00,2013-03-30 21:20:00,
2013-03-30 17:30:00,48.0,28.8,32.57,West,270,10.0,16.0,47,0.00,,CLR,0.00,VWS V14.00,2013-03-30 21:30:00,
2013-03-30 17:40:00,48.0,28.8,32.57,WSW,247,8.0,15.0,47,0.00,,CLR,0.00,VWS V14.00,2013-03-30 21:40:00,
2013-03-30 17:50:00,48.0,28.8,32.57,SW,225,5.0,14.0,47,0.00,,CLR,0.00,VWS V14.00,2013-03-30 21:50:00,
2013-03-30 18:00:00,48.0,28.8,32.58,West,270,6.0,14.0,47,0.00,,CLR,0.00,VWS V14.00,2013-03-30 22:00:00,
2013-03-30 18:10:00,48.0,29.3,32.58,West,270,6.0,14.0,48,0.00,,CLR,0.00,VWS V14.00,2013-03-30 22:10:00,
2013-03-30 18:20:00,48.0,28.8,32.58,West,270,9.0,11.0,47,0.00,,CLR,0.00,VWS V14.00,2013-03-30 22:20:00,
2013-03-30 18:30:00,48.0,28.8,32.57,WSW,247,6.0,10.0,47,0.00,,CLR,0.00,VWS V14.00,2013-03-30 22:30:00,
2013-03-30 18:40:00,48.0,28.8,32.57,WNW,292,3.0,10.0,47,0.00,,CLR,0.00,VWS V14.00,2013-03-30 22:40:00,
2013-03-30 18:50:00,47.0,29.3,32.58,WNW,292,7.0,13.0,50,0.00,,CLR,0.00,VWS V14.00,2013-03-30 22:50:00,
2013-03-30 19:00:00,46.0,29.8,32.57,West,270,9.0,13.0,53,0.00,,CLR,0.00,VWS V14.00,2013-03-30 23:00:00,
2013-03-30 19:10:00,45.0,29.8,32.58,West,270,9.0,11.0,55,0.00,,CLR,0.00,VWS V14.00,2013-03-30 23:10:00,
2013-03-30 19:20:00,45.0,30.7,32.57,West,270,7.0,10.0,57,0.00,,CLR,0.00,VWS V14.00,2013-03-30 23:20:00,
2013-03-30 19:30:00,44.0,29.8,32.57,WNW,292,4.0,9.0,57,0.00,,CLR,0.00,VWS V14.00,2013-03-30 23:30:00,
2013-03-30 19:40:00,44.0,28.9,32.58,West,270,3.0,6.0,55,0.00,,CLR,0.00,VWS V14.00,2013-03-30 23:40:00,
2013-03-30 19:50:00,44.0,28.9,32.58,WNW,292,3.0,6.0,55,0.00,,CLR,0.00,VWS V14.00,2013-03-30 23:50:00,
2013-03-30 20:00:00,44.0,29.8,32.58,West,270,3.0,5.0,57,0.00,,CLR,0.00,VWS V14.00,2013-03-31 00:00:00,
2013-03-30 20:10:00,43.0,28.4,32.58,WNW,292,3.0,5.0,56,0.00,,CLR,0.00,VWS V14.00,2013-03-31 00:10:00,
2013-03-30 20:20:00,43.0,28.4,32.58,West,270,3.0,6.0,56,0.00,,CLR,0.00,VWS V14.00,2013-03-31 00:20:00,
2013-03-30 20:30:00,43.0,28.8,32.59,West,270,3.0,7.0,57,0.00,,CLR,0.00,VWS V14.00,2013-03-31 00:30:00,
2013-03-30 20:40:00,44.0,32.6,32.59,WNW,292,9.0,18.0,64,0.00,,CLR,0.00,VWS V14.00,2013-03-31 00:40:00,
2013-03-30 20:50:00,42.0,32.9,32.60,WSW,247,7.0,14.0,70,0.00,,CLR,0.00,VWS V14.00,2013-03-31 00:50:00,
2013-03-30 21:00:00,42.0,34.0,32.61,West,270,7.0,14.0,73,0.00,,CLR,0.00,VWS V14.00,2013-03-31 01:00:00,
2013-03-30 21:10:00,41.0,34.0,32.61,West,270,10.0,11.0,76,0.00,,CLR,0.00,VWS V14.00,2013-03-31 01:10:00,
2013-03-30 21:20:00,41.0,35.0,32.62,WSW,247,3.0,10.0,79,0.00,,CLR,0.00,VWS V14.00,2013-03-31 01:20:00,
2013-03-30 21:30:00,40.0,34.3,32.62,WNW,292,5.0,10.0,80,0.00,,CLR,0.00,VWS V14.00,2013-03-31 01:30:00,
2013-03-30 21:40:00,40.0,34.3,32.62,WSW,247,5.0,7.0,80,0.00,,CLR,0.00,VWS V14.00,2013-03-31 01:40:00,
2013-03-30 21:50:00,40.0,35.0,32.62,West,270,4.0,9.0,82,0.00,,CLR,0.00,VWS V14.00,2013-03-31 01:50:00,
2013-03-30 22:00:00,39.0,34.6,32.62,West,270,4.0,9.0,84,0.00,,CLR,0.00,VWS V14.00,2013-03-31 02:00:00,
2013-03-30 22:10:00,39.0,33.7,32.62,WNW,292,6.0,8.0,81,0.00,,CLR,0.00,VWS V14.00,2013-03-31 02:10:00,
2013-03-30 22:20:00,39.0,33.7,32.62,West,270,5.0,7.0,81,0.00,,CLR,0.00,VWS V14.00,2013-03-31 02:20:00,
2013-03-30 22:30:00,39.0,33.7,32.63,West,270,4.0,7.0,81,0.00,,CLR,0.00,VWS V14.00,2013-03-31 02:30:00,
2013-03-30 22:40:00,39.0,33.4,32.63,West,270,3.0,6.0,80,0.00,,CLR,0.00,VWS V14.00,2013-03-31 02:40:00,
2013-03-30 22:50:00,39.0,33.7,32.63,West,270,4.0,5.0,81,0.00,,CLR,0.00,VWS V14.00,2013-03-31 02:50:00,
2013-03-30 23:00:00,39.0,34.0,32.63,WNW,292,3.0,5.0,82,0.00,,CLR,0.00,VWS V14.00,2013-03-31 03:00:00,
2013-03-30 23:10:00,38.0,32.7,32.62,WNW,292,2.0,5.0,81,0.00,,CLR,0.00,VWS V14.00,2013-03-31 03:10:00,
2013-03-30 23:20:00,38.0,33.0,32.62,WSW,247,3.0,4.0,82,0.00,,CLR,0.00,VWS V14.00,2013-03-31 03:20:00,
2013-03-30 23:30:00,38.0,33.9,32.62,WSW,247,4.0,5.0,85,0.00,,CLR,0.00,VWS V14.00,2013-03-31 03:30:00,
2013-03-30 23:40:00,38.0,33.9,32.62,West,270,4.0,5.0,85,0.00,,CLR,0.00,VWS V14.00,2013-03-31 03:40:00,
2013-03-30 23:50:00,38.0,34.8,32.62,West,270,4.0,4.0,88,0.00,,CLR,0.00,VWS V14.00,2013-03-31 03:50:00,